Tracking 17632 objects as of 1-May-2016
HD Live streaming from Space Station
objects crossing your sky now

COSMOS 2430

Track COSMOS 2430 now!
COSMOS 2430 is classified as:


NORAD ID: 32268
Int'l Code: 2007-049A
Perigee: 491.4 km
Apogee: 39,885.3 km
Inclination: 64.5 °
Period: 717.9 minutes
Semi major axis: 26559 km
RCS: 3.1623 m2 (large)
Launch date: October 23, 2007
Source: Commonwealth of Independent States (former USSR) (CIS)
Launch site: PLESETSK MISSILE AND SPACE COMPLEX (PKMTR)
Your satellite tracking list
Your tracking list is empty





NASA's NSSDC Master Catalog

Two Line Element Set (TLE):
1 32268U 07049A   16119.84029881 +.00001497 +00000-0 +14682-2 0  9993
2 32268 064.4934 020.1136 7416211 243.6304 025.5698 02.00575404062404
Source of the keplerian elements: AFSPC

N2YO: 332